Weather History for KCDS - March, 2013

Change the Weather History Date:

Tuesday, March 5, 2013

  Actual Average Record
Temperature  
Mean Temperature 45 °F 50 °F  
Max Temperature 55 °F 63 °F 92 °F (2009)
Min Temperature 35 °F 37 °F 12 °F (2015)
Degree Days  
Heating Degree Days 20 15  
Month to date heating degree days 61 78  
Since 1 July heating degree days 2440 2638  
Cooling Degree Days 0 0  
Month to date cooling degree days 0 0  
Year to date cooling degree days 0 1  
Moisture  
Dew Point 16 °F    
Average Humidity 37    
Maximum Humidity 59    
Minimum Humidity 15    
Precipitation  
Precipitation 0.00 in 0.05 in 0.56 in (1926)
Month to date precipitation 0.00 0.22  
Year to date precipitation 3.34 2.00  
Snow  
Snow 0.00 in 0.00 in - ()
Month to date snowfall 0.0 0.1  
Since 1 July snowfall 5.5 6.5  
Snow Depth -    
Sea Level Pressure  
Sea Level Pressure 30.36 in    
Wind  
Wind Speed 12 mph (North)    
Max Wind Speed 38 mph    
Max Gust Speed 46 mph    
Visibility 10 miles    
Events      
T = Trace of Precipitation, MM = Missing Value Source: NWS Daily Summary

Daily Weather History Graph

Daily Weather History Graph

Search for Another Location

Airport or City:

Trip Planner

Search our weather history database for the weather conditions in past years. The results will help you decide how hot, cold, wet, or windy it might be!

Date:

Astronomy

Mar. 05, 2013 Rise Set
Actual Time 7:04 AM CST 6:40 PM CST
Civil Twilight 6:39 AM CST 7:06 PM CST
Nautical Twilight 6:10 AM CST 7:35 PM CST
Astronomical Twilight 5:41 AM CST 8:04 PM CST
Moon 2:07 AM CST (3/5) 12:32 PM CST (3/5)
Length of Visible Light 12h 26m
Length of Day
11h 36m
Last Quarter, 40% of the Moon is Illuminated
Mar 5
Last Quarter
Mar 11
New
Mar 19
First Quarter
Mar 27
Full
Apr 2
Last Quarter

Hourly Weather History & Observations

Time (CST) Temp. Windchill Dew Point Humidity Pressure Visibility Wind Dir Wind Speed Gust Speed Precip Events Conditions
1:53 AM 44.1 °F 35.9 °F 27.0 °F 51% 30.18 in 10.0 mi North 19.6 mph 32.2 mph N/A   Overcast
2:53 AM 42.1 °F 33.3 °F 27.0 °F 55% 30.21 in 10.0 mi North 19.6 mph 27.6 mph N/A   Scattered Clouds
3:53 AM 39.9 °F 31.4 °F 27.0 °F 60% 30.24 in 10.0 mi North 16.1 mph - N/A   Clear
4:53 AM 39.0 °F 30.3 °F 26.1 °F 60% 30.29 in 10.0 mi North 16.1 mph - N/A   Clear
5:53 AM 37.9 °F 28.2 °F 24.1 °F 57% 30.32 in 10.0 mi North 18.4 mph - N/A   Clear
6:53 AM 35.1 °F 26.9 °F 21.9 °F 59% 30.36 in 10.0 mi North 11.5 mph - N/A   Clear
7:53 AM 36.0 °F 27.5 °F 19.0 °F 50% 30.40 in 10.0 mi North 12.7 mph - N/A   Clear
8:53 AM 37.9 °F 28.9 °F 18.0 °F 45% 30.45 in 10.0 mi NNW 16.1 mph 26.5 mph N/A   Clear
9:53 AM 41.0 °F 31.9 °F 12.9 °F 32% 30.45 in 10.0 mi North 19.6 mph 28.8 mph N/A   Clear
10:53 AM 44.1 °F 36.2 °F 12.0 °F 27% 30.46 in 10.0 mi NNW 18.4 mph 24.2 mph N/A   Clear
11:53 AM 46.9 °F - 9.0 °F 21% 30.45 in 10.0 mi North 11.5 mph 23.0 mph N/A   Clear
12:53 PM 48.9 °F - 10.0 °F 21% 30.42 in 10.0 mi NNW 12.7 mph - N/A   Clear
1:53 PM 51.1 °F - 10.0 °F 19% 30.38 in 10.0 mi NNW 13.8 mph 20.7 mph N/A   Clear
2:53 PM 54.0 °F - 7.0 °F 15% 30.36 in 10.0 mi North 16.1 mph 21.9 mph N/A   Clear
3:53 PM 54.0 °F - 7.0 °F 15% 30.35 in 10.0 mi North 16.1 mph 20.7 mph N/A   Clear
4:53 PM 54.0 °F - 9.0 °F 17% 30.35 in 10.0 mi NNE 9.2 mph - N/A   Clear
5:53 PM 53.1 °F - 8.1 °F 16% 30.35 in 10.0 mi NNE 8.1 mph - N/A   Clear
6:53 PM 48.9 °F - 12.0 °F 23% 30.37 in 10.0 mi NNE 3.5 mph - N/A   Clear
7:53 PM 45.0 °F - 14.0 °F 29% 30.37 in 10.0 mi Calm Calm - N/A   Clear
8:53 PM 41.0 °F - 14.0 °F 33% 30.38 in 10.0 mi Calm Calm - N/A   Clear
9:53 PM 39.0 °F 36.8 °F 16.0 °F 39% 30.39 in 10.0 mi East 3.5 mph - N/A   Clear
10:53 PM 39.0 °F 36.8 °F 15.1 °F 38% 30.39 in 10.0 mi East 3.5 mph - N/A   Clear
11:53 PM 37.9 °F 35.5 °F 15.1 °F 39% 30.38 in 10.0 mi ESE 3.5 mph - N/A   Clear